This demonstration page uses our WeatherBlox Daily Observations layout. Learn more.

Hourly Observations for April 23, 2017

Temp ( °F °C ) Dew Point ( °F °C ) Humidity (%) Winds ( mph kmh ) Pressure ( in mb ) Visibility ( mi km ) Precip ( " mm )
12:15 am 00:15 Clear 46 8 25 -3.8 43 43 SSW 3 6 30.21 1023 10 16.0934 0 0
12:35 am 00:35 Clear 46 8 25 -4 43 43 SSW 3 6 30.21 1023 10 16.0934 0 0
12:55 am 00:55 Clear 46 7.5 26 -3.6 46 46 SSW 6 9 30.24 1024 10 16.0934 0 0
1:15 am 01:15 Clear 46 7.6 26 -3.4 46 46 SW 5 7 30.24 1024 10 16.0934 0 0
1:35 am 01:35 Clear 46 7.8 28 -2.5 48 48 SSW 7 11 30.21 1023 10 16.0934 0 0
1:55 am 01:55 Clear 45 7.3 28 -2.4 51 51 SSW 6 9 30.24 1024 10 16.0934 0 0
2:15 am 02:15 Clear 44 6.5 28 -2.3 54 54 SSW 6 9 30.24 1024 10 16.0934 0 0
2:35 am 02:35 Clear 43 6.3 28 -2.5 54 54 SSW 6 9 30.21 1023 10 16.0934 0 0
2:55 am 02:55 Clear 42 5.6 28 -2.2 58 58 SW 7 11 30.21 1023 10 16.0934 0 0
3:15 am 03:15 Clear 43 6 28 -2.5 55 55 SSW 7 11 30.21 1023 10 16.0934 0 0
3:35 am 03:35 Clear 42 5.8 28 -2.3 56 56 SSW 6 9 30.21 1023 10 16.0934 0 0
3:55 am 03:55 Clear 41 5.2 28 -2.3 59 59 SSW 7 11 30.21 1023 10 16.0934 0 0
4:15 am 04:15 Clear 41 5 28 -2.1 60 60 SW 6 9 30.21 1023 10 16.0934 0 0
4:35 am 04:35 Clear 40 4.7 28 -2.2 61 61 SW 6 9 30.21 1023 10 16.0934 0 0
4:55 am 04:55 Clear 40 4.5 28 -2.4 61 61 SW 3 6 30.21 1023 10 16.0934 0 0
5:15 am 05:15 Clear 40 4.2 28 -2.3 63 63 SSW 5 7 30.18 1022 10 16.0934 0 0
5:35 am 05:35 Clear 38 3.4 28 -2.5 66 66 SW 3 6 30.24 1024 10 16.0934 0 0
5:55 am 05:55 Clear 36 2.3 27 -2.7 70 70 SW 3 6 30.21 1023 10 16.0934 0 0
6:15 am 06:15 Clear 37 2.6 27 -2.7 68 68 Calm 30.21 1023 10 16.0934 0 0
6:35 am 06:35 Clear 37 3 28 -2.5 67 67 SSW 6 9 30.21 1023 10 16.0934 0 0
6:55 am 06:55 Sunny 35 1.5 26 -3.1 72 72 S 7 11 30.21 1023 10 16.0934 0 0
7:15 am 07:15 Sunny 35 1.8 27 -3 71 71 SSW 6 9 30.21 1023 10 16.0934 0 0
7:35 am 07:35 Sunny 36 2.3 27 -2.6 70 70 S 3 6 30.21 1023 10 16.0934 0 0
7:55 am 07:55 Sunny 38 3.6 30 -1.3 71 71 S 5 7 30.21 1023 10 16.0934 0 0
8:15 am 08:15 Sunny 44 6.5 31 -0.3 62 62 SSW 3 6 30.18 1022 10 16.0934 0 0
8:35 am 08:35 Sunny 48 8.8 31 -0.5 52 52 SSW 8 13 30.15 1021 10 16.0934 0 0
8:55 am 08:55 Sunny 50 10.2 32 -0.1 49 49 SW 8 13 30.15 1021 10 16.0934 0 0
9:15 am 09:15 Sunny 53 11.4 30 -0.9 43 43 SSW 13 20 30.12 1020 10 16.0934 0 0
9:35 am 09:35 Sunny 55 12.6 28 -2.1 36 36 SSW 15 24 30.12 1020 10 16.0934 0 0
9:55 am 09:55 Sunny 57 13.7 29 -1.8 34 34 SSW 16 26 30.12 1020 10 16.0934 0 0
10:15 am 10:15 Sunny 58 14.3 27 -3 30 30 SSW 16 26 30.09 1019 10 16.0934 0 0
10:35 am 10:35 Sunny 58 14.6 28 -2.3 31 31 SW 20 31 30.09 1019 10 16.0934 0 0
10:55 am 10:55 Sunny 59 15.2 29 -1.9 31 31 SSW 17 28 30.09 1019 10 16.0934 0 0
11:15 am 11:15 Sunny 60 15.8 28 -2.3 29 29 SSW 18 30 30.09 1019 10 16.0934 0 0
11:35 am 11:35 Sunny 61 16.2 29 -1.9 29 29 SW 17 28 30.09 1019 10 16.0934 0 0
11:55 am 11:55 Sunny 62 16.6 27 -2.8 27 27 SW 17 28 30.06 1018 10 16.0934 0 0
12:15 pm 12:15 Sunny 62 16.9 27 -3 26 26 SSW 23 37 30.03 1017 10 16.0934 0 0
12:35 pm 12:35 Sunny 64 17.5 27 -3 25 25 S 17 28 30 1016 10 16.0934 0 0
12:55 pm 12:55 Sunny 64 17.9 27 -2.9 24 24 S 21 33 30 1016 10 16.0934 0 0
1:15 pm 13:15 Sunny 64 18 28 -2.2 25 25 S 24 39 29.94 1014 10 16.0934 0 0
1:35 pm 13:35 Sunny 65 18.5 26 -3.6 22 22 S 26 43 29.94 1014 10 16.0934 0 0
1:55 pm 13:55 Sunny 66 19 27 -2.6 23 23 S 23 37 29.94 1014 10 16.0934 0 0
2:15 pm 14:15 Sunny 66 19 24 -4.4 20 20 SSW 24 39 29.94 1014 10 16.0934 0 0
2:35 pm 14:35 Sunny 65 18.6 24 -4.6 20 20 S 22 35 29.94 1014 10 16.0934 0 0
2:55 pm 14:55 Sunny 67 19.6 27 -2.8 22 22 S 28 44 29.88 1012 10 16.0934 0 0
3:15 pm 15:15 Sunny 67 19.6 26 -3.3 21 21 S 29 46 29.88 1012 10 16.0934 0 0
3:35 pm 15:35 Sunny 66 19.1 25 -4 21 21 S 23 37 29.91 1013 10 16.0934 0 0
3:55 pm 15:55 Sunny 68 20 24 -4.7 19 19 S 26 43 29.85 1011 10 16.0934 0 0
4:15 pm 16:15 Sunny 68 20 25 -3.7 20 20 S 26 43 29.85 1011 10 16.0934 0 0
4:35 pm 16:35 Sunny 69 20.3 25 -3.7 20 20 S 26 43 29.83 1010 10 16.0934 0 0
4:55 pm 16:55 Sunny 67 19.6 25 -4 20 20 S 25 41 29.83 1010 10 16.0934 0 0
5:15 pm 17:15 Sunny 68 20 25 -3.8 20 20 S 26 43 29.8 1009 10 16.0934 0 0
5:35 pm 17:35 Sunny 68 20.2 25 -3.7 20 20 S 25 41 29.8 1009 10 16.0934 0 0
5:55 pm 17:55 Sunny 68 20 26 -3.2 21 21 S 30 48 29.8 1009 10 16.0934 0 0
6:15 pm 18:15 Sunny 67 19.7 25 -3.9 20 20 S 29 46 29.77 1008 10 16.0934 0 0
6:35 pm 18:35 Sunny 67 19.3 27 -2.9 22 22 S 25 41 29.77 1008 10 16.0934 0 0
6:55 pm 18:55 Sunny 66 19 27 -2.7 23 23 S 26 43 29.74 1007 10 16.0934 0 0
7:15 pm 19:15 Sunny 65 18.6 27 -2.8 23 23 S 25 41 29.74 1007 10 16.0934 0 0
7:35 pm 19:35 Sunny 65 18.1 27 -2.7 24 24 S 18 30 29.74 1007 10 16.0934 0 0
7:55 pm 19:55 Sunny 63 17.3 29 -1.7 28 28 S 16 26 29.77 1008 10 16.0934 0 0
8:15 pm 20:15 Sunny 62 16.5 30 -1.1 30 30 S 17 28 29.77 1008 10 16.0934 0 0
8:35 pm 20:35 Clear 60 15.7 31 -0.7 33 33 S 12 19 29.77 1008 10 16.0934 0 0
8:55 pm 20:55 Clear 60 15.5 31 -0.7 33 33 S 15 24 29.77 1008 10 16.0934 0 0
9:15 pm 21:15 Clear 58 14.7 31 -0.5 36 36 S 12 19 29.77 1008 10 16.0934 0 0
9:35 pm 21:35 Clear 58 14.4 31 -0.5 36 36 S 12 19 29.77 1008 10 16.0934 0 0
9:55 pm 21:55 Clear 58 14.3 31 -0.5 36 36 SSE 16 26 29.77 1008 10 16.0934 0 0
10:15 pm 22:15 Clear 57 14 32 0.2 39 39 SSE 14 22 29.8 1009 10 16.0934 0 0
10:35 pm 22:35 Clear 55 13 33 0.3 42 42 SSE 14 22 29.77 1008 10 16.0934 0 0
10:55 pm 22:55 Clear 55 12.5 33 0.5 44 44 SSE 14 22 29.77 1008 10 16.0934 0 0
11:35 pm 23:35 Clear 54 12.3 33 0.6 45 45 SSE 14 22 29.77 1008 10 16.0934 0 0
11:55 pm 23:55 Clear 54 12.2 33 0.5 45 45 SSE 17 28 29.77 1008 10 16.0934 0 0

Powered by AerisWeather